This demonstration page uses our WeatherBlox Daily Observations layout. Learn more.

Left ArrowRight Arrow

34.16533, -84.80231

Hourly Observations for April 24, 2022

Temp ( °F °C ) Dew Point ( °F °C ) Humidity (%) Winds ( mph kmh ) Pressure ( in mb ) Visibility ( mi km ) Precip ( " mm )
12:15 am 00:15 Mostly Cloudy 66 19 55 13 68 68 Calm 30.17 1022 10 16 0.00 0.00
12:35 am 00:35 Cloudy 64 18 57 14 78 78 Calm 30.19 1022 10 16 0.00 0.00
12:55 am 00:55 Cloudy 63 17 57 14 83 83 Calm 30.19 1022 10 16 0.00 0.00
1:15 am 01:15 Cloudy 63 17 57 14 83 83 Calm 30.19 1022 10 16 0.00 0.00
1:35 am 01:35 Cloudy 61 16 57 14 88 88 Calm 30.19 1022 10 16 0.00 0.00
1:55 am 01:55 Cloudy 61 16 57 14 88 88 Calm 30.19 1022 10 16 0.00 0.00
2:15 am 02:15 Cloudy 63 17 57 14 83 83 SE 5 7 30.18 1022 10 16 0.00 0.00
2:35 am 02:35 Cloudy 66 19 55 13 68 68 SE 7 11 30.16 1021 10 16 0.00 0.00
2:55 am 02:55 Cloudy 66 19 55 13 68 68 SE 7 11 30.17 1022 10 16 0.00 0.00
3:15 am 03:15 Cloudy 66 19 55 13 68 68 SSE 7 11 30.17 1022 10 16 0.00 0.00
3:35 am 03:35 Cloudy 66 19 55 13 68 68 SSE 7 11 30.17 1022 10 16 0.00 0.00
3:55 am 03:55 Cloudy 66 19 55 13 68 68 SSE 7 11 30.18 1022 10 16 0.00 0.00
4:15 am 04:15 Cloudy 66 19 55 13 68 68 SSE 6 9 30.18 1022 10 16 0.00 0.00
4:35 am 04:35 Cloudy 64 18 57 14 78 78 Calm 30.19 1022 10 16 0.00 0.00
4:55 am 04:55 Cloudy 64 18 57 14 78 78 Calm 30.19 1022 10 16 0.00 0.00
5:15 am 05:15 Cloudy 64 18 57 14 78 78 VRB 3 6 30.19 1022 10 16 0.00 0.00
5:35 am 05:35 Cloudy 64 18 57 14 78 78 VRB 3 6 30.20 1023 10 16 0.00 0.00
5:55 am 05:55 Cloudy 64 18 57 14 78 78 ESE 3 6 30.20 1023 10 16 0.00 0.00
6:15 am 06:15 Cloudy 64 18 57 14 78 78 Calm 30.20 1023 10 16 0.00 0.00
6:35 am 06:35 Cloudy 63 17 57 14 83 83 Calm 30.21 1023 10 16 0.00 0.00
6:55 am 06:55 Cloudy 63 17 57 14 83 83 Calm 30.22 1023 10 16 0.00 0.00
7:15 am 07:15 Cloudy 63 17 57 14 83 83 ENE 5 7 30.22 1023 10 16 0.00 0.00
7:35 am 07:35 Cloudy 63 17 57 14 83 83 VRB 5 7 30.23 1024 10 16 0.00 0.00
7:55 am 07:55 Cloudy 63 17 57 14 83 83 NE 3 6 30.24 1024 10 16 0.00 0.00
8:15 am 08:15 Cloudy 63 17 57 14 83 83 Calm 30.24 1024 10 16 0.00 0.00
8:35 am 08:35 Mostly Cloudy 64 18 57 14 78 78 Calm 30.24 1024 10 16 0.00 0.00
8:55 am 08:55 Cloudy 64 18 57 14 78 78 VRB 6 9 30.23 1024 10 16 0.00 0.00
9:15 am 09:15 Mostly Cloudy 66 19 57 14 73 73 Calm 30.23 1024 10 16 0.00 0.00
9:35 am 09:35 Mostly Sunny 68 20 57 14 69 69 S 6 9 30.23 1024 10 16 0.00 0.00
9:55 am 09:55 Sunny 70 21 57 14 64 64 VRB 5 7 30.23 1024 10 16 0.00 0.00
10:15 am 10:15 Sunny 72 22 57 14 61 61 S 6 9 30.22 1023 10 16 0.00 0.00
10:35 am 10:35 Sunny 72 22 59 15 65 65 VRB 5 7 30.22 1023 10 16 0.00 0.00
10:55 am 10:55 Sunny 73 23 57 14 57 57 SE 8 13 30.21 1023 10 16 0.00 0.00
11:15 am 11:15 Sunny 73 23 57 14 57 57 VRB 6 9 30.20 1023 10 16 0.00 0.00
11:35 am 11:35 Sunny 75 24 55 13 50 50 SSE 8 13 30.20 1023 10 16 0.00 0.00
11:55 am 11:55 Sunny 75 24 57 14 54 54 SE 8 13 30.19 1022 10 16 0.00 0.00
12:15 pm 12:15 Mostly Sunny 75 24 55 13 50 50 VRB 5 7 30.19 1022 10 16 0.00 0.00
12:35 pm 12:35 Partly Cloudy 75 24 54 12 47 47 VRB 6 9 30.18 1022 10 16 0.00 0.00
12:55 pm 12:55 Mostly Cloudy 77 25 54 12 44 44 VRB 7 11 30.17 1022 10 16 0.00 0.00
1:15 pm 13:15 Mostly Sunny 77 25 54 12 44 44 VRB 7 11 30.16 1021 10 16 0.00 0.00
1:35 pm 13:35 Partly Cloudy 79 26 55 13 45 45 VRB 5 7 30.16 1021 10 16 0.00 0.00
1:55 pm 13:55 Mostly Sunny 79 26 54 12 42 42 SSW 3 6 30.16 1021 10 16 0.00 0.00
2:15 pm 14:15 Partly Cloudy 79 26 54 12 42 42 Calm 30.15 1021 10 16 0.00 0.00
2:35 pm 14:35 Mostly Cloudy 81 27 55 13 42 42 SE 5 7 30.14 1021 10 16 0.00 0.00
2:55 pm 14:55 Mostly Cloudy 79 26 55 13 45 45 Calm 30.14 1021 10 16 0.00 0.00
3:15 pm 15:15 Mostly Cloudy 79 26 55 13 45 45 VRB 3 6 30.13 1020 10 16 0.00 0.00
3:35 pm 15:35 Mostly Cloudy 81 27 54 12 39 39 S 7 11 30.12 1020 10 16 0.00 0.00
3:55 pm 15:55 Mostly Cloudy 81 27 54 12 39 39 Calm 30.11 1020 10 16 0.00 0.00
4:15 pm 16:15 Partly Cloudy 81 27 55 13 42 42 Calm 30.10 1019 10 16 0.00 0.00
4:35 pm 16:35 Partly Cloudy 79 26 55 13 45 45 SSW 6 9 30.11 1020 10 16 0.00 0.00
4:55 pm 16:55 Mostly Cloudy 82 28 55 13 40 40 VRB 3 6 30.09 1019 10 16 0.00 0.00
5:15 pm 17:15 Mostly Cloudy 81 27 55 13 42 42 SSE 6 9 30.09 1019 10 16 0.00 0.00
5:35 pm 17:35 Mostly Cloudy 82 28 55 13 40 40 E 7 11 30.09 1019 10 16 0.00 0.00
5:55 pm 17:55 Mostly Sunny 82 28 55 13 40 40 VRB 7 11 30.08 1019 10 16 0.00 0.00
6:15 pm 18:15 Sunny 82 28 55 13 40 40 SSE 8 13 30.08 1019 10 16 0.00 0.00
6:35 pm 18:35 Sunny 81 27 55 13 42 42 VRB 5 7 30.08 1019 10 16 0.00 0.00
6:55 pm 18:55 Mostly Sunny 81 27 55 13 42 42 S 3 6 30.08 1019 10 16 0.00 0.00
7:15 pm 19:15 Mostly Sunny 79 26 55 13 45 45 SSE 3 6 30.09 1019 10 16 0.00 0.00
7:35 pm 19:35 Sunny 79 26 57 14 48 48 SSE 3 6 30.09 1019 10 16 0.00 0.00
7:55 pm 19:55 Sunny 79 26 57 14 48 48 SSE 3 6 30.09 1019 10 16 0.00 0.00
8:15 pm 20:15 Sunny 75 24 57 14 54 54 SE 3 6 30.10 1019 10 16 0.00 0.00
8:35 pm 20:35 Mostly Clear 73 23 57 14 57 57 SSE 3 6 30.10 1019 10 16 0.00 0.00
8:55 pm 20:55 Mostly Cloudy 73 23 57 14 57 57 SSE 5 7 30.10 1019 10 16 0.00 0.00
9:15 pm 21:15 Cloudy 73 23 57 14 57 57 SSE 5 7 30.11 1020 10 16 0.00 0.00
9:35 pm 21:35 Cloudy 73 23 57 14 57 57 SSE 6 9 30.11 1020 10 16 0.00 0.00
9:55 pm 21:55 Cloudy 73 23 57 14 57 57 SSE 6 9 30.12 1020 10 16 0.00 0.00
10:15 pm 22:15 Cloudy 72 22 57 14 61 61 SE 5 7 30.13 1020 10 16 0.00 0.00
10:35 pm 22:35 Mostly Cloudy 72 22 57 14 61 61 SSE 5 7 30.13 1020 10 16 0.00 0.00
10:55 pm 22:55 Mostly Cloudy 70 21 57 14 64 64 SSE 6 9 30.13 1020 10 16 0.00 0.00
11:15 pm 23:15 Cloudy 68 20 57 14 69 69 Calm 30.13 1020 10 16 0.00 0.00
11:35 pm 23:35 Cloudy 64 18 59 15 83 83 Calm 30.14 1021 10 16 0.00 0.00
11:55 pm 23:55 Cloudy 64 18 59 15 83 83 Calm 30.14 1021 10 16 0.00 0.00

Powered by AerisWeather